Location: Unspecified
(0.0000°N, 0.0000°E)
Time: 10:00:02
(UTC+00:00)

Amateur Radio Satellites - All Passes

Search period start: 17 April 2014 09:30
Search period end: 18 April 2014 09:30
Location: Unspecified, 0.0000°N, 0.0000°E

Satellite Date Start Highest point End Downlink Frequencies (MHz)
Time Altitude Azimuth
FUNcube-1 17 Apr 09:38:12 09:41:53 27° 102° (ESE) 09:45:39 145.950 - 145.970 MHz USB
Oscar 11 17 Apr 09:56:02 10:00:01 36° 282° (WNW) 10:04:01 145.825 FM, Beacon 2401.500 USB
HO-68 17 Apr 09:56:18 10:02:03 27° 285° (WNW) 10:07:51 435.675 MHz FM
PCSat 17 Apr 10:36:16 10:41:05 34° 71° (ENE) 10:45:55 145.825 MHz
FUNcube-1 17 Apr 11:16:04 11:18:04 13° 281° (W) 11:20:06 145.950 - 145.970 MHz USB
Sapphire 17 Apr 11:33:51 11:39:07 57° 251° (WSW) 11:44:24 437.095 MHz 1200 baud AX-25 AFSK
KITSAT 1 17 Apr 11:57:53 12:02:23 16° 69° (ENE) 12:06:52 435.175 FM
PCSat 17 Apr 12:21:05 12:24:14 16° 250° (WSW) 12:27:24 145.825 MHz
Oscar 19 17 Apr 12:25:00 12:28:24 18° 77° (ENE) 12:31:46 437.125 CW, 437.150 USB
Oscar 16 17 Apr 12:32:05 12:36:12 25° 77° (ENE) 12:40:17 437.025 USB, Beacon 2401.1428
AO-Echo 17 Apr 12:48:51 12:50:34 12° 77° (ENE) 12:52:16 ?
Uribyol 2 17 Apr 13:02:33 13:06:46 25° 77° (ENE) 13:10:57 436.500 FM
SO-50 17 Apr 13:14:31 13:17:55 21° 113° (ESE) 13:21:16 436.795 FM
ISS 17 Apr 13:26:14 13:29:08 27° 306° (NW) 13:32:01 145.800 FM
AO-27 17 Apr 13:40:23 13:45:36 73° 77° (ENE) 13:50:46 436.795 MHz FM
KITSAT 1 17 Apr 13:49:37 13:57:30 61° 250° (WSW) 14:05:24 435.175 FM
ITAMSAT 1 17 Apr 13:51:45 13:56:59 84° 257° (WSW) 14:02:10 435.822 SSB
Oscar 19 17 Apr 14:03:13 14:07:28 27° 257° (WSW) 14:11:43 437.125 CW, 437.150 USB
OPAL 17 Apr 14:06:25 14:11:31 57° 104° (ESE) 14:16:35 ?
TMSAT-1 17 Apr 14:09:33 14:13:34 22° 77° (ENE) 14:17:33 436.925 FM
Oscar 16 17 Apr 14:11:39 14:15:17 20° 257° (WSW) 14:18:55 437.025 USB, Beacon 2401.1428
AO-Echo 17 Apr 14:23:59 14:29:02 45° 258° (WSW) 14:34:04 ?
JAS-1B 17 Apr 14:41:13 14:49:33 35° 78° (ENE) 14:56:55 435.800 - 435.900 CW/SSB
Uribyol 2 17 Apr 14:42:17 14:45:58 20° 257° (WSW) 14:49:38 436.500 FM
Uosat F 17 Apr 14:42:50 14:45:31 14° 77° (ENE) 14:48:10 435.120 FM
SO-50 17 Apr 14:55:09 14:58:13 18° 292° (WNW) 15:01:16 436.795 FM
Gurwin Techsat 1B 17 Apr 14:58:14 15:03:28 61° 258° (WSW) 15:08:41 435.225 FM
AO-7 17 Apr 15:02:51 15:09:01 23° 73° (ENE) 15:15:07 29.400 - 29.500 MHz
PANSAT 17 Apr 15:28:07 15:30:56 19° 29° (NNE) 15:33:45 not established
TMSAT-1 17 Apr 15:49:03 15:53:13 24° 257° (WSW) 15:57:22 436.925 FM
UOSAT-12 17 Apr 15:50:27 15:54:46 53° 112° (ESE) 15:59:07 437.025 FM, 437.400 FM
Uosat F 17 Apr 16:19:33 16:24:02 32° 257° (WSW) 16:28:29 435.120 FM
RS-15 17 Apr 16:21:55 16:32:05 40° 70° (ENE) 16:42:37 29.354 - 29.394 USB, Beacon 29.352 USB
JAS-1B 17 Apr 16:31:03 16:39:37 37° 254° (WSW) 16:47:20 435.800 - 435.900 CW/SSB
AO-7 17 Apr 16:53:36 17:01:25 46° 254° (WSW) 17:09:13 29.400 - 29.500 MHz
PANSAT 17 Apr 17:07:20 17:11:07 58° 210° (SSW) 17:14:55 not established
Hamsat 17 Apr 17:25:45 17:29:27 30° 79° (ENE) 17:33:07 145.90 MHz
STRAND 1 17 Apr 18:19:11 18:24:16 83° 103° (ESE) 18:29:24 ?
RS-15 17 Apr 18:34:03 18:44:02 37° 248° (WSW) 18:54:32 29.354 - 29.394 USB, Beacon 29.352 USB
SO-67 17 Apr 18:48:32 18:51:59 62° 79° (E) 18:55:25 435.3500 MHz FM
JAS-2 17 Apr 18:58:09 19:05:11 75° 257° (WSW) 19:11:20 435.800 - 435.900 CW/SSB, 435.910 FM
MaSat-1 17 Apr 19:27:29 19:30:51 21° 111° (ESE) 19:33:45 437.345 MHz
HO-68 17 Apr 20:00:27 20:06:21 28° 75° (ENE) 20:12:12 435.675 MHz FM
Oscar 11 17 Apr 20:31:43 20:33:28 12° 78° (ENE) 20:35:14 145.825 FM, Beacon 2401.500 USB
MaSat-1 17 Apr 21:07:48 21:08:56 11° 282° (WNW) 21:10:00 437.345 MHz
Saudisat 1A 17 Apr 21:35:09 21:39:28 72° 248° (WSW) 21:43:47 436.775 MHz
HO-68 17 Apr 21:47:35 21:53:43 32° 255° (WSW) 21:59:51 435.675 MHz FM
FUNcube-1 17 Apr 21:49:12 21:53:17 37° 79° (E) 21:57:14 145.950 - 145.970 MHz USB
Oscar 11 17 Apr 22:05:49 22:09:25 26° 258° (WSW) 22:12:59 145.825 FM, Beacon 2401.500 USB
Sapphire 17 Apr 22:27:45 22:32:24 29° 109° (ESE) 22:37:02 437.095 MHz 1200 baud AX-25 AFSK
PCSat 17 Apr 23:12:03 23:17:26 77° 289° (WNW) 23:22:49 145.825 MHz
KITSAT 1 18 Apr 00:04:35 00:10:26 22° 111° (ESE) 00:16:15 435.175 FM
Sapphire 18 Apr 00:11:57 00:15:33 18° 290° (WNW) 00:19:09 437.095 MHz 1200 baud AX-25 AFSK
AO-27 18 Apr 00:39:52 00:41:34 12° 103° (ESE) 00:43:16 436.795 MHz FM
ITAMSAT 1 18 Apr 00:49:43 00:52:47 16° 103° (ESE) 00:55:51 435.822 SSB
Oscar 19 18 Apr 00:57:13 01:02:11 47° 102° (ESE) 01:07:09 437.125 CW, 437.150 USB
ISS 18 Apr 01:01:48 01:04:59 43° 235° (SW) 01:08:11 145.800 FM
Oscar 16 18 Apr 01:04:57 01:10:05 65° 102° (ESE) 01:15:14 437.025 USB, Beacon 2401.1428
AO-Echo 18 Apr 01:16:03 01:19:43 23° 102° (ESE) 01:23:24 ?
SO-50 18 Apr 01:26:46 01:31:12 40° 68° (ENE) 01:35:42 436.795 FM
Uribyol 2 18 Apr 01:36:29 01:41:38 68° 103° (ESE) 01:46:49 436.500 FM
KITSAT 1 18 Apr 01:57:51 02:05:31 47° 290° (WNW) 02:13:12 435.175 FM
Gurwin Techsat 1B 18 Apr 01:58:00 02:02:16 25° 103° (ESE) 02:06:32 435.225 FM
AO-27 18 Apr 02:15:56 02:20:47 41° 283° (WNW) 02:25:39 436.795 MHz FM
ITAMSAT 1 18 Apr 02:27:29 02:31:59 31° 283° (WNW) 02:36:32 435.822 SSB
OPAL 18 Apr 02:38:23 02:43:15 58° 256° (WSW) 02:48:08 ?
TMSAT-1 18 Apr 02:46:27 02:51:40 63° 102° (ESE) 02:56:55 436.925 FM
JAS-1B 18 Apr 02:51:05 02:56:16 30° 106° (ESE) 03:02:07 435.800 - 435.900 CW/SSB
AO-Echo 18 Apr 02:55:16 02:58:15 17° 282° (WNW) 03:01:14 ?
Uosat F 18 Apr 03:10:45 03:15:12 33° 103° (ESE) 03:19:41 435.120 FM
SO-50 18 Apr 03:10:45 03:11:35 10° 247° (WSW) 03:12:25 436.795 FM
PANSAT 18 Apr 03:15:47 03:18:46 21° 151° (SSE) 03:21:43 not established
AO-7 18 Apr 03:27:42 03:35:15 39° 106° (ESE) 03:42:49 29.400 - 29.500 MHz
Gurwin Techsat 1B 18 Apr 03:38:05 03:41:58 21° 283° (WNW) 03:45:51 435.225 FM
UOSAT-12 18 Apr 04:00:35 04:05:14 85° 248° (WSW) 04:09:49 437.025 FM, 437.400 FM
RS-15 18 Apr 04:04:53 04:15:13 34° 112° (ESE) 04:25:04 29.354 - 29.394 USB, Beacon 29.352 USB
JAS-1B 18 Apr 04:42:15 04:46:43 22° 280° (W) 04:51:39 435.800 - 435.900 CW/SSB
Uosat F 18 Apr 04:51:19 04:53:43 14° 283° (WNW) 04:56:08 435.120 FM
PANSAT 18 Apr 04:55:08 04:58:57 55° 330° (NNW) 05:02:45 not established
STRAND 1 18 Apr 05:16:11 05:18:16 12° 77° (ENE) 05:20:20 ?
AO-7 18 Apr 05:20:54 05:27:40 28° 286° (WNW) 05:34:30 29.400 - 29.500 MHz
Hamsat 18 Apr 05:32:47 05:36:53 41° 101° (ESE) 05:41:00 145.90 MHz
RS-15 18 Apr 06:16:21 06:27:12 43° 290° (WNW) 06:37:39 29.354 - 29.394 USB, Beacon 29.352 USB
JAS-2 18 Apr 06:29:31 06:35:25 56° 104° (ESE) 06:42:07 435.800 - 435.900 CW/SSB, 435.910 FM
SO-67 18 Apr 06:34:20 06:37:30 33° 101° (E) 06:40:41 435.3500 MHz FM
STRAND 1 18 Apr 06:52:26 06:57:11 38° 257° (WSW) 07:01:55 ?
MaSat-1 18 Apr 07:27:30 07:31:00 29° 76° (ENE) 07:35:06 437.345 MHz
HO-68 18 Apr 07:52:25 07:57:52 24° 105° (ESE) 08:03:19 435.675 MHz FM
JAS-2 18 Apr 08:18:28 08:20:28 12° 280° (W) 08:22:33 435.800 - 435.900 CW/SSB, 435.910 FM
Oscar 11 18 Apr 08:39:52 08:42:43 17° 102° (ESE) 08:45:34 145.825 FM, Beacon 2401.500 USB
MaSat-1 18 Apr 09:07:50 09:09:31 12° 248° (WSW) 09:11:17 437.345 MHz
